Location: Sevilla
(37.3933°N, 5.9839°W)
Time: 09:56:17
(UTC+02:00)

ISS - Visible Passes

Search period start: 18 May 2024 00:00
Search period end: 28 May 2024 00:00
Orbit: 410 x 414 km, 51.6° (Epoch: 18 May)

Date Brightness Start Highest point End Pass type
(mag) Time Alt. Az. Time Alt. Az. Time Alt. Az.
19 May -0.5 01:03:57 10° NNW 01:04:46 13° N 01:04:46 13° N visible
20 May -0.7 00:14:52 10° N 00:15:43 11° NNE 00:16:33 10° NNE visible
21 May -0.7 01:00:11 10° NNW 01:01:06 16° NNW 01:01:06 16° NNW visible
22 May -1.3 00:10:34 10° NNW 00:12:50 18° NNE 00:12:50 18° NNE visible
22 May -1.0 23:21:04 10° N 23:22:40 13° NNE 23:24:15 10° NE visible
23 May -0.8 00:56:32 10° NW 00:57:20 16° NW 00:57:20 16° NW visible
24 May -2.1 00:06:38 10° NW 00:09:01 31° N 00:09:01 31° N visible
24 May -1.9 23:16:47 10° NNW 23:19:29 22° NNE 23:20:41 18° ENE visible
25 May -0.7 00:53:04 10° WNW 00:53:28 13° WNW 00:53:28 13° WNW visible
25 May -1.3 22:27:02 10° NNW 22:29:08 15° NNE 22:31:13 10° ENE visible
26 May -2.6 00:02:48 10° NW 00:05:07 42° NW 00:05:07 42° NW visible
26 May -3.3 23:12:40 10° NW 23:15:55 50° NE 23:16:47 38° E visible
27 May -2.3 22:22:35 10° NNW 22:25:33 29° NNE 22:28:26 10° E visible
